Hourly Weather Celinnoe

Today, 15 June, Tuesday

Time Temperature Precipitation Wind Pressure Humidity
00:00 +20°C° 0 mm 2 mps 739 mmHg 40%
01:00 +21°C° 0 mm 1 mps 739 mmHg 42%
02:00 +20°C° 0 mm 1 mps 739 mmHg 45%
03:00 +20°C° 0 mm 1 mps 739 mmHg 47%
04:00 +19°C° 0 mm 1 mps 739 mmHg 50%
05:00 +20°C° 0 mm 2 mps 739 mmHg 47%
06:00 +23°C° 0 mm 2 mps 740 mmHg 45%
07:00 +25°C° 0 mm 2 mps 740 mmHg 43%
08:00 +27°C° 0 mm 3 mps 740 mmHg 38%
09:00 +29°C° 0 mm 3 mps 739 mmHg 34%
10:00 +32°C° 0 mm 4 mps 739 mmHg 30%
11:00 +31°C° 0 mm 3 mps 739 mmHg 27%
12:00 +33°C° 0 mm 3 mps 739 mmHg 25%
13:00 +33°C° 0 mm 3 mps 739 mmHg 23%
14:00 +32°C° 0 mm 2 mps 738 mmHg 23%
15:00 +34°C° 0 mm 2 mps 738 mmHg 22%
16:00 +34°C° 0 mm 2 mps 738 mmHg 22%
17:00 +32°C° 0 mm 2 mps 737 mmHg 25%
18:00 +31°C° 0 mm 2 mps 737 mmHg 29%
19:00 +30°C° 0 mm 1 mps 737 mmHg 32%
20:00 +28°C° 0 mm 2 mps 737 mmHg 33%
21:00 +27°C° 0 mm 2 mps 737 mmHg 33%
22:00 +25°C° 0 mm 2 mps 737 mmHg 34%
23:00 +25°C° 0 mm 2 mps 737 mmHg 35%

Tomorrow, 16 June, Wednesday

Time Temperature Precipitation Wind Pressure Humidity
00:00 +24°C° 0 mm 2 mps 737 mmHg 37%
01:00 +23°C° 0 mm 1 mps 737 mmHg 39%
02:00 +23°C° 0 mm 1 mps 737 mmHg 40%
03:00 +22°C° 0 mm 1 mps 737 mmHg 42%
04:00 +22°C° 0 mm 1 mps 737 mmHg 43%
05:00 +23°C° 0 mm 1 mps 737 mmHg 42%
06:00 +25°C° 0 mm 1 mps 737 mmHg 41%
07:00 +26°C° 0 mm 1 mps 737 mmHg 40%
08:00 +28°C° 0 mm 2 mps 737 mmHg 36%
09:00 +30°C° 0 mm 3 mps 737 mmHg 32%
10:00 +33°C° 0 mm 3 mps 737 mmHg 27%
11:00 +34°C° 0 mm 4 mps 737 mmHg 25%
12:00 +35°C° 0 mm 4 mps 737 mmHg 23%
13:00 +36°C° 0 mm 5 mps 737 mmHg 20%
14:00 +35°C° 0 mm 4 mps 736 mmHg 22%
15:00 +35°C° 0 mm 4 mps 736 mmHg 23%
16:00 +34°C° 0 mm 3 mps 736 mmHg 25%
17:00 +33°C° 0 mm 3 mps 735 mmHg 31%
18:00 +30°C° 0 mm 2 mps 735 mmHg 36%
19:00 +28°C° 0 mm 1 mps 735 mmHg 42%
20:00 +27°C° 0 mm 1 mps 735 mmHg 43%
21:00 +26°C° 0 mm 1 mps 735 mmHg 45%
22:00 +25°C° 0 mm 2 mps 735 mmHg 46%
23:00 +24°C° 0 mm 2 mps 735 mmHg 46%

Day after tomorrow, 17 June, Thursday

Time Temperature Precipitation Wind Pressure Humidity
00:00 +24°C° 0 mm 2 mps 734 mmHg 47%
01:00 +23°C° 0 mm 2 mps 734 mmHg 48%
02:00 +23°C° 0 mm 2 mps 733 mmHg 48%
03:00 +21°C° 0 mm 2 mps 733 mmHg 49%
04:00 +21°C° 0 mm 2 mps 733 mmHg 50%
05:00 +23°C° 0 mm 2 mps 733 mmHg 47%
06:00 +25°C° 0 mm 3 mps 733 mmHg 43%
07:00 +26°C° 0 mm 3 mps 732 mmHg 40%
08:00 +28°C° 0 mm 4 mps 732 mmHg 38%
09:00 +30°C° 0 mm 4 mps 732 mmHg 36%
10:00 +32°C° 0 mm 5 mps 732 mmHg 34%
11:00 +33°C° 0 mm 6 mps 732 mmHg 34%
12:00 +33°C° 0 mm 6 mps 732 mmHg 34%
13:00 +33°C° 0 mm 7 mps 731 mmHg 35%
14:00 +33°C° 0 mm 7 mps 731 mmHg 38%
15:00 +32°C° 0 mm 7 mps 731 mmHg 41%
16:00 +30°C° 0 mm 7 mps 731 mmHg 44%
17:00 +29°C° 0 mm 7 mps 731 mmHg 50%
18:00 +27°C° 0 mm 7 mps 731 mmHg 56%
19:00 +26°C° 0 mm 6 mps 732 mmHg 62%
20:00 +23°C° 0.1 mm 6 mps 732 mmHg 67%
21:00 +22°C° 0.1 mm 6 mps 733 mmHg 72%
22:00 +20°C° 0.1 mm 5 mps 733 mmHg 77%
23:00 +19°C° 0 mm 5 mps 733 mmHg 77%

18 June, Friday

Time Temperature Precipitation Wind Pressure Humidity
00:00 +17°C° 0 mm 5 mps 733 mmHg 76%
01:00 +17°C° 0 mm 4 mps 734 mmHg 76%
02:00 +15°C° 0 mm 4 mps 734 mmHg 76%
03:00 +15°C° 0 mm 4 mps 734 mmHg 76%
04:00 +14°C° 0 mm 4 mps 734 mmHg 76%
05:00 +15°C° 0 mm 5 mps 735 mmHg 66%
06:00 +16°C° 0 mm 6 mps 735 mmHg 57%
07:00 +18°C° 0 mm 7 mps 735 mmHg 48%
08:00 +18°C° 0 mm 7 mps 736 mmHg 44%
09:00 +20°C° 0 mm 7 mps 736 mmHg 39%
10:00 +21°C° 0 mm 7 mps 736 mmHg 35%
11:00 +22°C° 0 mm 7 mps 737 mmHg 33%
12:00 +22°C° 0 mm 7 mps 737 mmHg 32%
13:00 +23°C° 0 mm 7 mps 737 mmHg 30%
14:00 +23°C° 0 mm 7 mps 737 mmHg 30%
15:00 +23°C° 0 mm 6 mps 737 mmHg 29%
16:00 +23°C° 0 mm 6 mps 737 mmHg 29%
17:00 +22°C° 0 mm 6 mps 738 mmHg 33%
18:00 +21°C° 0 mm 6 mps 738 mmHg 38%
19:00 +20°C° 0 mm 5 mps 739 mmHg 42%
20:00 +17°C° 0 mm 5 mps 739 mmHg 47%
21:00 +17°C° 0 mm 4 mps 740 mmHg 52%
22:00 +14°C° 0 mm 3 mps 740 mmHg 56%
23:00 +13°C° 0 mm 3 mps 740 mmHg 59%

19 June, Saturday

Time Temperature Precipitation Wind Pressure Humidity
00:00 +13°C° 0 mm 3 mps 741 mmHg 62%
01:00 +13°C° 0 mm 2 mps 741 mmHg 65%
02:00 +13°C° 0 mm 2 mps 741 mmHg 66%
03:00 +13°C° 0 mm 2 mps 742 mmHg 67%
04:00 +12°C° 0 mm 2 mps 742 mmHg 68%
05:00 +14°C° 0 mm 2 mps 742 mmHg 62%
06:00 +15°C° 0 mm 2 mps 743 mmHg 57%
07:00 +17°C° 0 mm 2 mps 743 mmHg 52%
08:00 +18°C° 0 mm 3 mps 743 mmHg 48%
09:00 +19°C° 0 mm 3 mps 743 mmHg 43%
10:00 +21°C° 0 mm 4 mps 743 mmHg 39%
11:00 +22°C° 0 mm 4 mps 743 mmHg 37%
12:00 +23°C° 0 mm 4 mps 742 mmHg 34%
13:00 +23°C° 0 mm 4 mps 742 mmHg 32%
14:00 +25°C° 0 mm 4 mps 742 mmHg 33%
15:00 +25°C° 0 mm 4 mps 742 mmHg 34%
16:00 +25°C° 0 mm 5 mps 741 mmHg 35%
17:00 +25°C° 0 mm 4 mps 741 mmHg 40%
18:00 +23°C° 0 mm 4 mps 741 mmHg 44%
19:00 +22°C° 0 mm 3 mps 741 mmHg 48%
20:00 +21°C° 0 mm 3 mps 741 mmHg 54%
21:00 +19°C° 0 mm 4 mps 741 mmHg 60%
22:00 +17°C° 0 mm 4 mps 741 mmHg 66%
23:00 +17°C° 0 mm 4 mps 740 mmHg 68%

20 June, Sunday

Time Temperature Precipitation Wind Pressure Humidity
00:00 +16°C° 0 mm 5 mps 740 mmHg 70%
01:00 +16°C° 0 mm 6 mps 740 mmHg 72%
02:00 +16°C° 0 mm 6 mps 739 mmHg 74%
03:00 +16°C° 0 mm 6 mps 739 mmHg 75%
04:00 +16°C° 0 mm 7 mps 739 mmHg 77%
05:00 +18°C° 0 mm 7 mps 739 mmHg 75%
06:00 +20°C° 0 mm 7 mps 739 mmHg 73%
07:00 +21°C° 0 mm 8 mps 739 mmHg 71%
08:00 +23°C° 0 mm 8 mps 738 mmHg 63%
09:00 +26°C° 0 mm 8 mps 738 mmHg 55%
10:00 +28°C° 0 mm 8 mps 738 mmHg 47%
11:00 +28°C° 0 mm 8 mps 738 mmHg 46%
12:00 +29°C° 0 mm 8 mps 737 mmHg 45%
13:00 +29°C° 0 mm 8 mps 737 mmHg 44%
14:00 +29°C° 0 mm 8 mps 737 mmHg 42%
15:00 +29°C° 0 mm 8 mps 737 mmHg 40%
16:00 +29°C° 0 mm 9 mps 737 mmHg 38%
17:00 +27°C° 0 mm 8 mps 738 mmHg 39%
18:00 +26°C° 0 mm 7 mps 738 mmHg 40%
19:00 +24°C° 0 mm 6 mps 738 mmHg 40%
20:00 +21°C° 0 mm 5 mps 738 mmHg 45%
21:00 +19°C° 0 mm 4 mps 739 mmHg 50%
22:00 +17°C° 0 mm 3 mps 739 mmHg 55%
23:00 +16°C° 0 mm 3 mps 739 mmHg 57%
Show more

We Need Your Consent

Meteoprog and our Service Providers may store and access personal data such as cookies, device identifiers or other similar technologies on your device and process such data to personalise content and ads, as well as provide social media features and to analyse the traffic.

  • Store and/or access information on your device

    Cookies, device identifiers or other information can be stored or accessed on your device for the purposes indicated above.

  • Personalised ads and content, ad and content measurement, audience insights, and products development

    Ads and content can be personalised based on a profile. More data can be added to better personalise ads and content. Ad and content performance can be measured. Insights about the audience who saw the ads and content can be derived. Such data can be used to develop or improve user’s experience, systems and software.

By clicking ‘I Agree’ you will allow the use of indicated cookies, device identifiers, web beacons or other similar technologies. Your settings can be changed in the browser on your device.

For certain purposes, legitimate interests may be relied on, rather than consent. You can read more about this in our Privacy and Cookie Policy.